Time,TemperatureF,DewpointF,PressureIn,WindDirection,WindDirectionDegrees,WindSpeedMPH,WindSpeedGustMPH,Humidity,HourlyPrecipIn,Conditions,Clouds,dailyrainin,SoftwareType,DateUTC
2013-08-27 00:00:00,79.6,73.0,29.82,SSW,203,0.0,0.0,79,0.00,,,0.00,weatherlink.com 1.10,2013-08-27 05:00:00,
2013-08-27 00:15:00,79.3,72.0,29.82,SSW,200,0.0,0.0,79,0.00,,,0.00,weatherlink.com 1.10,2013-08-27 05:15:00,
2013-08-27 00:45:00,78.8,72.0,29.82,SSW,196,0.0,0.0,80,0.00,,,0.00,weatherlink.com 1.10,2013-08-27 05:45:00,
2013-08-27 01:00:00,78.6,72.0,29.82,SSW,211,0.0,0.0,80,0.00,,,0.00,weatherlink.com 1.10,2013-08-27 06:00:00,
2013-08-27 01:15:00,78.3,72.0,29.82,South,188,0.0,0.0,81,0.00,,,0.00,weatherlink.com 1.10,2013-08-27 06:15:00,
2013-08-27 01:30:00,78.1,72.0,29.82,SSW,200,0.0,0.0,81,0.00,,,0.00,weatherlink.com 1.10,2013-08-27 06:30:00,
2013-08-27 01:45:00,77.9,72.0,29.81,South,178,0.0,0.0,81,0.00,,,0.00,weatherlink.com 1.10,2013-08-27 06:45:00,
2013-08-27 02:00:00,77.7,71.0,29.81,SSW,213,0.0,0.0,81,0.00,,,0.00,weatherlink.com 1.10,2013-08-27 07:00:00,
2013-08-27 02:15:00,77.5,71.0,29.80,SSW,203,0.0,0.0,81,0.00,,,0.00,weatherlink.com 1.10,2013-08-27 07:15:00,
2013-08-27 02:30:00,77.4,71.0,29.80,South,181,0.0,0.0,81,0.00,,,0.00,weatherlink.com 1.10,2013-08-27 07:30:00,
2013-08-27 02:45:00,77.1,71.0,29.80,SSW,192,0.0,0.0,81,0.00,,,0.00,weatherlink.com 1.10,2013-08-27 07:45:00,
2013-08-27 03:00:00,77.0,71.0,29.79,SSW,192,0.0,0.0,81,0.00,,,0.00,weatherlink.com 1.10,2013-08-27 08:00:00,
2013-08-27 03:15:00,76.9,71.0,29.79,SW,215,0.0,0.0,81,0.00,,,0.00,weatherlink.com 1.10,2013-08-27 08:15:00,
2013-08-27 03:30:00,76.9,70.0,29.79,SSW,194,0.0,0.0,80,0.00,,,0.00,weatherlink.com 1.10,2013-08-27 08:30:00,
2013-08-27 03:45:00,77.2,70.0,29.79,South,191,0.0,0.0,79,0.00,,,0.00,weatherlink.com 1.10,2013-08-27 08:45:00,
2013-08-27 04:00:00,77.3,70.0,29.79,South,189,0.0,0.0,78,0.00,,,0.00,weatherlink.com 1.10,2013-08-27 09:00:00,
2013-08-27 04:15:00,77.3,70.0,29.78,South,184,0.0,0.0,78,0.00,,,0.00,weatherlink.com 1.10,2013-08-27 09:15:00,
2013-08-27 04:30:00,77.2,70.0,29.78,SSW,200,0.0,0.0,78,0.00,,,0.00,weatherlink.com 1.10,2013-08-27 09:30:00,
2013-08-27 04:45:00,76.9,70.0,29.78,SSW,192,0.0,0.0,78,0.00,,,0.00,weatherlink.com 1.10,2013-08-27 09:45:00,
2013-08-27 05:00:00,76.6,70.0,29.77,SSW,205,0.0,0.0,79,0.00,,,0.00,weatherlink.com 1.10,2013-08-27 10:00:00,
2013-08-27 05:15:00,76.5,70.0,29.77,SSW,207,0.0,0.0,79,0.00,,,0.00,weatherlink.com 1.10,2013-08-27 10:15:00,
2013-08-27 05:30:00,76.2,69.0,29.77,SSW,202,0.0,0.0,79,0.00,,,0.00,weatherlink.com 1.10,2013-08-27 10:30:00,
2013-08-27 05:45:00,76.0,69.0,29.77,SSW,198,0.0,0.0,80,0.00,,,0.00,weatherlink.com 1.10,2013-08-27 10:45:00,
2013-08-27 06:00:00,76.0,69.0,29.77,South,184,0.0,0.0,79,0.00,,,0.00,weatherlink.com 1.10,2013-08-27 11:00:00,
2013-08-27 06:15:00,76.1,69.0,29.77,South,176,0.0,0.0,79,0.00,,,0.00,weatherlink.com 1.10,2013-08-27 11:15:00,
2013-08-27 06:30:00,76.1,69.0,29.77,SSW,207,0.0,0.0,78,0.00,,,0.00,weatherlink.com 1.10,2013-08-27 11:30:00,
2013-08-27 06:45:00,76.0,69.0,29.77,SSW,210,0.0,0.0,78,0.00,,,0.00,weatherlink.com 1.10,2013-08-27 11:45:00,
2013-08-27 07:00:00,76.1,69.0,29.77,South,186,0.0,0.0,78,0.00,,,0.00,weatherlink.com 1.10,2013-08-27 12:00:00,
2013-08-27 07:15:00,76.2,69.0,29.78,South,186,0.0,0.0,78,0.00,,,0.00,weatherlink.com 1.10,2013-08-27 12:15:00,
2013-08-27 07:30:00,76.6,69.0,29.78,South,190,0.0,0.0,77,0.00,,,0.00,weatherlink.com 1.10,2013-08-27 12:30:00,
2013-08-27 07:45:00,77.0,69.0,29.77,South,178,0.0,0.0,76,0.00,,,0.00,weatherlink.com 1.10,2013-08-27 12:45:00,
2013-08-27 08:00:00,77.5,69.0,29.77,SSW,200,0.0,0.0,75,0.00,,,0.00,weatherlink.com 1.10,2013-08-27 13:00:00,
2013-08-27 08:15:00,78.0,70.0,29.77,SSW,213,0.0,0.0,75,0.00,,,0.00,weatherlink.com 1.10,2013-08-27 13:15:00,
2013-08-27 08:30:00,78.5,70.0,29.77,SSW,192,0.0,0.0,74,0.00,,,0.00,weatherlink.com 1.10,2013-08-27 13:30:00,
2013-08-27 08:45:00,79.1,70.0,29.77,SSW,194,0.0,0.0,73,0.00,,,0.00,weatherlink.com 1.10,2013-08-27 13:45:00,
2013-08-27 09:01:00,79.5,70.0,29.77,South,188,0.0,0.0,72,0.00,,,0.00,weatherlink.com 1.10,2013-08-27 14:01:00,
2013-08-27 09:16:00,80.4,70.0,29.77,SW,233,0.0,0.0,71,0.00,,,0.00,weatherlink.com 1.10,2013-08-27 14:16:00,
2013-08-27 09:31:00,80.8,70.0,29.77,SW,223,0.0,0.0,70,0.00,,,0.00,weatherlink.com 1.10,2013-08-27 14:31:00,
2013-08-27 09:46:00,81.6,71.0,29.78,West,275,0.0,0.0,69,0.00,,,0.00,weatherlink.com 1.10,2013-08-27 14:46:00,
2013-08-27 10:01:00,82.4,70.0,29.80,WSW,241,0.0,0.0,67,0.00,,,0.00,weatherlink.com 1.10,2013-08-27 15:01:00,
2013-08-27 10:16:00,83.3,71.0,29.79,South,173,0.0,0.0,66,0.00,,,0.00,weatherlink.com 1.10,2013-08-27 15:16:00,
2013-08-27 10:31:00,84.2,71.0,29.79,South,187,0.0,0.0,64,0.00,,,0.00,weatherlink.com 1.10,2013-08-27 15:31:00,
2013-08-27 10:46:00,84.9,71.0,29.79,SSW,208,0.0,0.0,63,0.00,,,0.00,weatherlink.com 1.10,2013-08-27 15:46:00,
2013-08-27 11:01:00,85.2,71.0,29.79,South,183,0.0,0.0,62,0.00,,,0.00,weatherlink.com 1.10,2013-08-27 16:01:00,
2013-08-27 11:16:00,85.7,71.0,29.79,WSW,244,0.0,0.0,61,0.00,,,0.00,weatherlink.com 1.10,2013-08-27 16:16:00,
2013-08-27 11:31:00,86.2,71.0,29.79,SW,226,0.0,0.0,61,0.00,,,0.00,weatherlink.com 1.10,2013-08-27 16:31:00,
2013-08-27 11:46:00,86.6,71.0,29.78,WSW,254,0.0,0.0,59,0.00,,,0.00,weatherlink.com 1.10,2013-08-27 16:46:00,
2013-08-27 12:01:00,86.8,71.0,29.78,SSW,195,0.0,0.0,60,0.00,,,0.00,weatherlink.com 1.10,2013-08-27 17:01:00,
2013-08-27 12:16:00,87.7,72.0,29.78,WSW,252,0.0,0.0,60,0.00,,,0.00,weatherlink.com 1.10,2013-08-27 17:16:00,
2013-08-27 12:31:00,87.9,72.0,29.78,SSW,212,0.0,0.0,59,0.00,,,0.00,weatherlink.com 1.10,2013-08-27 17:31:00,
2013-08-27 12:46:00,88.3,72.0,29.78,SW,228,0.0,0.0,58,0.00,,,0.00,weatherlink.com 1.10,2013-08-27 17:46:00,
2013-08-27 13:01:00,88.9,72.0,29.78,SSW,207,0.0,0.0,57,0.00,,,0.00,weatherlink.com 1.10,2013-08-27 18:01:00,
2013-08-27 13:16:00,88.7,73.0,29.77,West,271,0.0,0.0,60,0.00,,,0.00,weatherlink.com 1.10,2013-08-27 18:16:00,
2013-08-27 13:31:00,89.4,73.0,29.76,SSW,210,0.0,0.0,59,0.00,,,0.00,weatherlink.com 1.10,2013-08-27 18:31:00,
2013-08-27 13:46:00,90.0,73.0,29.76,WSW,250,0.0,0.0,57,0.00,,,0.00,weatherlink.com 1.10,2013-08-27 18:46:00,
2013-08-27 14:01:00,89.9,73.0,29.76,WSW,239,0.0,0.0,57,0.00,,,0.00,weatherlink.com 1.10,2013-08-27 19:01:00,
2013-08-27 14:16:00,90.4,73.0,29.76,South,187,0.0,0.0,57,0.00,,,0.00,weatherlink.com 1.10,2013-08-27 19:16:00,
2013-08-27 14:31:00,90.1,74.0,29.76,WSW,248,0.0,0.0,59,0.00,,,0.00,weatherlink.com 1.10,2013-08-27 19:31:00,
2013-08-27 14:46:00,90.5,74.0,29.76,SW,219,0.0,0.0,59,0.00,,,0.00,weatherlink.com 1.10,2013-08-27 19:46:00,
2013-08-27 15:01:00,90.9,74.0,29.76,SW,225,0.0,0.0,58,0.00,,,0.00,weatherlink.com 1.10,2013-08-27 20:01:00,
2013-08-27 15:16:00,91.2,74.0,29.76,WSW,242,0.0,0.0,58,0.00,,,0.00,weatherlink.com 1.10,2013-08-27 20:16:00,
2013-08-27 15:31:00,91.2,75.0,29.76,SW,231,0.0,0.0,59,0.00,,,0.00,weatherlink.com 1.10,2013-08-27 20:31:00,
2013-08-27 15:46:00,91.6,75.0,29.76,SSW,202,0.0,0.0,58,0.00,,,0.00,weatherlink.com 1.10,2013-08-27 20:46:00,
2013-08-27 16:01:00,91.7,75.0,29.75,SSW,194,0.0,0.0,58,0.00,,,0.00,weatherlink.com 1.10,2013-08-27 21:01:00,
2013-08-27 16:16:00,91.4,75.0,29.76,WSW,242,0.0,0.0,59,0.00,,,0.00,weatherlink.com 1.10,2013-08-27 21:16:00,
2013-08-27 17:01:00,91.5,76.0,29.76,NW,312,0.0,0.0,61,0.00,,,0.00,weatherlink.com 1.10,2013-08-27 22:01:00,
2013-08-27 17:16:00,91.9,77.0,29.76,WSW,240,0.0,0.0,62,0.00,,,0.00,weatherlink.com 1.10,2013-08-27 22:16:00,
2013-08-27 17:31:00,91.6,77.0,29.76,WSW,257,0.0,0.0,62,0.00,,,0.00,weatherlink.com 1.10,2013-08-27 22:31:00,
2013-08-27 17:46:00,91.2,77.0,29.76,WSW,256,0.0,0.0,63,0.00,,,0.00,weatherlink.com 1.10,2013-08-27 22:46:00,
2013-08-27 18:01:00,91.6,77.0,29.76,West,265,0.0,0.0,62,0.00,,,0.00,weatherlink.com 1.10,2013-08-27 23:01:00,
2013-08-27 18:16:00,91.1,77.0,29.76,WSW,245,0.0,0.0,64,0.00,,,0.00,weatherlink.com 1.10,2013-08-27 23:16:00,
2013-08-27 18:46:00,90.4,77.0,29.76,SW,228,0.0,0.0,65,0.00,,,0.00,weatherlink.com 1.10,2013-08-27 23:46:00,
2013-08-27 19:01:00,89.8,77.0,29.77,West,264,0.0,0.0,67,0.00,,,0.00,weatherlink.com 1.10,2013-08-28 00:01:00,
2013-08-27 19:16:00,89.0,78.0,29.77,West,261,0.0,0.0,69,0.00,,,0.00,weatherlink.com 1.10,2013-08-28 00:16:00,
2013-08-27 19:32:00,87.6,78.0,29.77,West,267,0.0,0.0,72,0.00,,,0.00,weatherlink.com 1.10,2013-08-28 00:32:00,
2013-08-27 19:47:00,86.7,78.0,29.77,WSW,256,0.0,0.0,74,0.00,,,0.00,weatherlink.com 1.10,2013-08-28 00:47:00,
2013-08-27 20:02:00,86.0,78.0,29.77,West,259,0.0,0.0,76,0.00,,,0.00,weatherlink.com 1.10,2013-08-28 01:02:00,
2013-08-27 20:17:00,85.3,77.0,29.77,WSW,256,0.0,0.0,77,0.00,,,0.00,weatherlink.com 1.10,2013-08-28 01:17:00,
2013-08-27 20:32:00,84.8,78.0,29.78,West,271,0.0,0.0,79,0.00,,,0.00,weatherlink.com 1.10,2013-08-28 01:32:00,
2013-08-27 20:47:00,84.4,78.0,29.79,West,269,0.0,0.0,80,0.00,,,0.00,weatherlink.com 1.10,2013-08-28 01:47:00,
2013-08-27 21:02:00,83.9,78.0,29.80,West,269,0.0,0.0,81,0.00,,,0.00,weatherlink.com 1.10,2013-08-28 02:02:00,
2013-08-27 21:17:00,83.7,77.0,29.80,West,269,0.0,0.0,81,0.00,,,0.00,weatherlink.com 1.10,2013-08-28 02:17:00,
2013-08-27 21:32:00,83.3,77.0,29.80,West,269,0.0,0.0,82,0.00,,,0.00,weatherlink.com 1.10,2013-08-28 02:32:00,
2013-08-27 21:47:00,83.0,77.0,29.80,West,269,0.0,0.0,83,0.00,,,0.00,weatherlink.com 1.10,2013-08-28 02:47:00,
2013-08-27 22:02:00,82.5,77.0,29.80,West,269,0.0,0.0,84,0.00,,,0.00,weatherlink.com 1.10,2013-08-28 03:02:00,
2013-08-27 22:17:00,82.1,77.0,29.81,West,269,0.0,0.0,85,0.00,,,0.00,weatherlink.com 1.10,2013-08-28 03:17:00,
2013-08-27 22:32:00,81.8,77.0,29.81,West,269,0.0,0.0,86,0.00,,,0.00,weatherlink.com 1.10,2013-08-28 03:32:00,
2013-08-27 22:47:00,81.4,77.0,29.81,West,269,0.0,0.0,87,0.00,,,0.00,weatherlink.com 1.10,2013-08-28 03:47:00,
2013-08-27 23:02:00,81.0,77.0,29.82,West,269,0.0,0.0,87,0.00,,,0.00,weatherlink.com 1.10,2013-08-28 04:02:00,
2013-08-27 23:17:00,80.7,77.0,29.82,West,269,0.0,0.0,88,0.00,,,0.00,weatherlink.com 1.10,2013-08-28 04:17:00,
2013-08-27 23:32:00,80.3,77.0,29.82,West,269,0.0,0.0,89,0.00,,,0.00,weatherlink.com 1.10,2013-08-28 04:32:00,
2013-08-27 23:47:00,79.9,77.0,29.82,West,269,0.0,0.0,89,0.00,,,0.00,weatherlink.com 1.10,2013-08-28 04:47:00,